Skip Page Navigation
NASA JPL Caltech
NASA Logo - Jet Propulsion Laboratory + View the NASA Portal
+ Center for Near-Earth Object Studies
JPL Home Earth Solar System Stars & Galaxies Technology
JPL Solar System Dynamics
BODIES ORBITS EPHEMERIDES TOOLS PHYSICAL DATA DISCOVERY FAQ SITE MAP
IMPORTANT: The SSD Announcement email list is now available. Major changes are coming in the near future, including possible hostname and/or URL changes. To be notified of such changes, subscribe to this email list.

Please visit this page for more details.


JPL Small-Body Database Browser
Search: [ help ]  
32279 Marshall (2000 PX16)
Classification: Main-belt Asteroid          SPK-ID: 2032279
Ephemeris | Orbit Diagram | Orbital Elements | Mission Design | Physical Parameters | Discovery Circumstances | Close-Approach Data ]

[ hide orbit diagram ]

For accurate long-term ephemerides, please instead use our Horizons system.This orbit viewer was implemented using two-body methods, and hence should not be used for determining accurate long-term trajectories (over several years or decades) or planetary encounter circumstances.


[ revert to old Java-based viewer ]

Orbital Elements at Epoch 2458600.5 (2019-Apr-27.0) TDB
Reference: JPL 24 (heliocentric ecliptic J2000)
 Element Value Uncertainty (1-sigma)   Units 
e .07651175431651186 4.1975e-08  
a 2.652544353676149 1.2791e-08 au
q 2.449593531774028 1.1377e-07 au
i 3.52932477932306 4.2524e-06 deg
node 153.7304701655528 7.6717e-05 deg
peri 274.1191684465322 8.2905e-05 deg
M 14.33234989537979 3.0177e-05 deg
tp 2458537.678643485293
(2019-Feb-23.17864349)
0.00013227 TDB
period 1577.946987784942
4.32
1.1413e-05
3.125e-08
d
yr
n .2281445465448451 1.6502e-09 deg/d
Q 2.85549517557827 1.3769e-08 au
  Orbit Determination Parameters
   # obs. used (total)      1249  
   data-arc span      8456 days (23.15 yr)  
   first obs. used      1996-09-08  
   last obs. used      2019-11-03  
   planetary ephem.      DE431  
   SB-pert. ephem.      SB431-N16  
   condition code      0  
   norm. resid. RMS      .50579  
   source      ORB  
   producer      Otto Matic  
   solution date      2019-Dec-04 01:49:59  

Additional Information
 Earth MOID = 1.46634 au 
 Jupiter MOID = 2.34786 au 
 T_jup = 3.383 
[ show covariance matrix ]

Ephemeris | Orbit Diagram | Orbital Elements | Mission Design | Physical Parameters | Discovery Circumstances | Close-Approach Data ]

Physical Parameter Table
Parameter Symbol Value Units Sigma Reference Notes
absolute magnitude H 14.7   n/a MPO452624  

32279 Marshall           Discovered 2000 Aug. 1 by the Lincoln Laboratory Near-Earth Asteroid Research Team at Socorro.
Nathan Charles Marshall (b. 1998) is a finalist in the 2016 Intel Science Talent Search, a science competition for high school seniors, for his earth and planetary science project. He attends the Boise High School, Boise, Idaho.
NOTE: some special characters may not display properly (any characters within {} are an attempt to place the proper accent above a character)
Reference: MPC batch dated 2018-09-25Last Updated: 2018-10-01

[ show close-approach data ]
Alternate Designations
 2000 PX16 = 1997 YH21 
Ephemeris | Orbit Diagram | Orbital Elements | Mission Design | Physical Parameters | Discovery Circumstances | Close-Approach Data ]
ABOUT SSD CREDITS/AWARDS PRIVACY/COPYRIGHT GLOSSARY LINKS
FirstGov 2019-Dec-10 08:11 UT
(server date/time)  
NASA Home Page
Site Manager:   Ryan S. Park
Webmaster  Alan B. Chamberlin